CW2014 Weather Reports


time (UTC)temp
C
wind
direction
speed
KPH
gust
KPH
rain 1hr
cm
rain 24hr
cm
rain mn
cm
humidity
%
barometer
mb
20260831014551 38 0 1.6 6.4 0.00 0.00 0.00 31 1006.0
20260831014024 38 327 1.6 6.4 0.00 0.00 0.00 31 1005.9
20260831013525 38 0 1.6 4.8 0.00 0.00 0.00 30 1005.9
20260831013109 38 17 1.6 4.8 0.00 0.00 0.00 30 1005.9
20260831012523 38 41 0.0 4.8 0.00 0.00 0.00 30 1005.9
20260831012024 38 41 1.6 6.4 0.00 0.00 0.00 29 1005.8
20260831011549 38 321 0.0 8.0 0.00 0.00 0.00 30 1005.9
20260831011024 38 0 1.6 8.0 0.00 0.00 0.00 29 1006.0
20260831010526 38 315 3.2 12.9 0.00 0.00 0.00 29 1006.0
20260831010054 39 327 3.2 12.9 0.00 0.00 0.00 29 1006.2
20260831005524 39 331 4.8 12.9 0.00 0.00 0.00 29 1006.3
20260831005023 39 10 1.6 8.0 0.00 0.00 0.00 29 1006.2
20260831004550 39 103 1.6 8.0 0.00 0.00 0.00 29 1006.3
20260831004026 40 236 1.6 11.3 0.00 0.00 0.00 28 1006.4
20260831003526 40 0 3.2 11.3 0.00 0.00 0.00 28 1006.4
20260831003056 40 279 3.2 12.9 0.00 0.00 0.00 28 1006.4
20260831002527 40 294 3.2 12.9 0.00 0.00 0.00 28 1006.3
20260831002024 40 285 1.6 9.7 0.00 0.00 0.00 28 1006.3
20260831001549 40 232 4.8 11.3 0.00 0.00 0.00 28 1006.4
20260831001024 40 290 1.6 11.3 0.00 0.00 0.00 28 1006.3
20260831000524 40 344 3.2 11.3 0.00 0.00 0.00 28 1006.4
20260831000049 40 0 1.6 11.3 0.00 0.00 0.00 28 1006.3
20260830235527 40 5 3.2 9.7 0.00 0.00 0.00 27 1006.3
20260830235027 40 0 1.6 9.7 0.00 0.00 0.00 27 1006.4
20260830234604 40 344 3.2 9.7 0.00 0.00 0.00 27 1006.3
20260830234024 40 0 1.6 8.0 0.00 0.00 0.00 27 1006.3
20260830233524 40 0 1.6 12.9 0.00 0.00 0.00 27 1006.4
20260830233054 40 288 1.6 12.9 0.00 0.00 0.00 28 1006.6
20260830232527 40 221 1.6 12.9 0.00 0.00 0.00 28 1006.6
20260830232027 40 304 4.8 14.5 0.00 0.00 0.00 27 1006.6
20260830231549 40 311 3.2 14.5 0.00 0.00 0.00 28 1006.7
20260830231024 40 252 4.8 14.5 0.00 0.00 0.00 27 1006.8
20260830230524 40 285 3.2 12.9 0.00 0.00 0.00 28 1007.0
20260830230048 39 86 1.6 12.9 0.00 0.00 0.00 29 1007.0
20260830225525 40 311 4.8 12.9 0.00 0.00 0.00 28 1007.1
20260830225025 40 13 4.8 11.3 0.00 0.00 0.00 28 1007.3
20260830224554 40 360 1.6 8.0 0.00 0.00 0.00 28 1007.3
20260830224030 40 0 1.6 20.9 0.00 0.00 0.00 28 1007.3
20260830223524 40 302 3.2 20.9 0.00 0.00 0.00 29 1007.4
20260830223048 39 196 6.4 20.9 0.00 0.00 0.00 29 1007.6
20260830222524 40 288 6.4 14.5 0.00 0.00 0.00 29 1007.6
20260830222027 39 284 1.6 9.7 0.00 0.00 0.00 29 1007.7
20260830221550 39 24 3.2 9.7 0.00 0.00 0.00 29 1007.8
20260830221025 39 296 1.6 12.9 0.00 0.00 0.00 29 1007.9
20260830220524 40 336 4.8 12.9 0.00 0.00 0.00 29 1008.1
20260830220051 40 310 3.2 12.9 0.00 0.00 0.00 29 1008.1
20260830215524 40 202 3.2 11.3 0.00 0.00 0.00 28 1008.2
20260830215023 40 302 3.2 14.5 0.00 0.00 0.00 28 1008.3
20260830214547 40 159 4.8 16.1 0.00 0.00 0.00 28 1008.5
20260830214026 40 175 3.2 16.1 0.00 0.00 0.00 28 1008.6
20260830213526 40 340 3.2 16.1 0.00 0.00 0.00 28 1008.7
20260830213055 40 239 4.8 12.9 0.00 0.00 0.00 28 1008.9
20260830212524 40 292 4.8 12.9 0.00 0.00 0.00 29 1008.9
20260830212025 40 279 4.8 12.9 0.00 0.00 0.00 29 1009.0
20260830211552 40 5 1.6 14.5 0.00 0.00 0.00 29 1009.1
20260830211027 40 136 4.8 14.5 0.00 0.00 0.00 29 1009.2
20260830210525 40 135 3.2 12.9 0.00 0.00 0.00 29 1009.3
20260830210052 40 200 3.2 14.5 0.00 0.00 0.00 29 1009.5
20260830205524 40 269 6.4 14.5 0.00 0.00 0.00 29 1009.5
20260830205024 40 0 1.6 9.7 0.00 0.00 0.00 30 1009.5
20260830204555 40 91 3.2 9.7 0.00 0.00 0.00 29 1009.6
20260830204025 40 171 3.2 9.7 0.00 0.00 0.00 30 1009.7
20260830203524 39 164 1.6 11.3 0.00 0.00 0.00 31 1009.8
20260830203114 39 103 3.2 17.7 0.00 0.00 0.00 30 1009.9
20260830202528 39 171 4.8 17.7 0.00 0.00 0.00 30 1010.0
20260830202027 39 203 1.6 12.9 0.00 0.00 0.00 31 1010.1
20260830201550 38 217 3.2 12.9 0.00 0.00 0.00 32 1010.2
20260830201027 39 309 4.8 12.9 0.00 0.00 0.00 31 1010.3
20260830200531 38 265 1.6 11.3 0.00 0.00 0.00 33 1010.3
20260830200048 37 0 3.2 11.3 0.00 0.00 0.00 33 1010.4
20260830195527 38 15 1.6 11.3 0.00 0.00 0.00 33 1010.4
20260830195026 37 223 1.6 11.3 0.00 0.00 0.00 33 1010.6
20260830194606 38 38 1.6 11.3 0.00 0.00 0.00 33 1010.6
20260830194028 38 86 1.6 11.3 0.00 0.00 0.00 33 1010.6
20260830193525 38 49 3.2 11.3 0.00 0.00 0.00 33 1010.7
20260830193051 38 91 1.6 9.7 0.00 0.00 0.00 33 1010.7
20260830192527 37 122 1.6 16.1 0.00 0.00 0.00 33 1010.8
20260830192031 37 225 3.2 16.1 0.00 0.00 0.00 33 1011.0
20260830191601 37 333 4.8 14.5 0.00 0.00 0.00 33 1010.9
20260830191025 37 306 4.8 14.5 0.00 0.00 0.00 34 1011.2
20260830190527 37 188 3.2 12.9 0.00 0.00 0.00 34 1011.2
20260830190052 37 0 1.6 11.3 0.00 0.00 0.00 34 1011.4
20260830185529 37 91 3.2 11.3 0.00 0.00 0.00 35 1011.4
20260830185027 37 190 1.6 11.3 0.00 0.00 0.00 36 1011.4
20260830184551 36 235 1.6 14.5 0.00 0.00 0.00 36 1011.5
20260830184028 37 0 4.8 14.5 0.00 0.00 0.00 35 1011.6
20260830183527 37 128 3.2 14.5 0.00 0.00 0.00 34 1011.7
20260830183105 37 146 3.2 14.5 0.00 0.00 0.00 36 1011.8
20260830182525 37 186 3.2 12.9 0.00 0.00 0.00 36 1011.9
20260830182026 36 134 3.2 12.9 0.00 0.00 0.00 36 1011.9
20260830181557 36 333 1.6 14.5 0.00 0.00 0.00 35 1011.9
20260830181031 37 202 4.8 16.1 0.00 0.00 0.00 36 1012.1
20260830180527 37 174 4.8 16.1 0.00 0.00 0.00 35 1012.1
20260830180053 37 179 4.8 12.9 0.00 0.00 0.00 36 1012.2
20260830175528 36 127 3.2 11.3 0.00 0.00 0.00 37 1012.3
20260830175028 36 269 3.2 12.9 0.00 0.00 0.00 36 1012.3
20260830174551 36 137 6.4 12.9 0.00 0.00 0.00 36 1012.4
20260830174025 36 160 1.6 14.5 0.00 0.00 0.00 37 1012.4
20260830173527 36 0 1.6 14.5 0.00 0.00 0.00 37 1012.4
20260830173107 36 171 3.2 14.5 0.00 0.00 0.00 37 1012.4
20260830172523 36 178 4.8 14.5 0.00 0.00 0.00 38 1012.4
20260830172024 36 150 3.2 14.5 0.00 0.00 0.00 37 1012.4
20260830171550 35 192 4.8 14.5 0.00 0.00 0.00 38 1012.4
20260830171024 35 152 1.6 14.5 0.00 0.00 0.00 38 1012.3
20260830170525 35 153 6.4 14.5 0.00 0.00 0.00 39 1012.2
20260830170051 35 240 6.4 16.1 0.00 0.00 0.00 39 1012.3
20260830165524 35 157 4.8 16.1 0.00 0.00 0.00 40 1012.3
20260830165023 34 154 3.2 12.9 0.00 0.00 0.00 40 1012.3
20260830164609 34 121 4.8 12.9 0.00 0.00 0.00 40 1012.4
20260830164028 34 178 3.2 17.7 0.00 0.00 0.00 41 1012.3
20260830163525 34 163 3.2 17.7 0.00 0.00 0.00 41 1012.4
20260830163105 33 180 4.8 12.9 0.00 0.00 0.00 41 1012.4
20260830162524 33 113 4.8 14.5 0.00 0.00 0.00 42 1012.4
20260830162024 33 161 3.2 14.5 0.00 0.00 0.00 41 1012.5
20260830161549 33 144 4.8 12.9 0.00 0.00 0.00 42 1012.7
20260830161023 33 161 4.8 16.1 0.00 0.00 0.00 43 1012.5
20260830160527 32 161 4.8 16.1 0.00 0.00 0.00 44 1012.5
20260830160047 32 131 6.4 17.7 0.00 0.00 0.00 44 1012.5
20260830155524 32 151 4.8 17.7 0.00 0.00 0.00 45 1012.5
20260830155027 32 136 4.8 16.1 0.00 0.00 0.00 45 1012.5
20260830154555 32 122 4.8 16.1 0.00 0.00 0.00 46 1012.4
20260830154026 31 150 4.8 16.1 0.00 0.00 0.00 47 1012.4
20260830153524 31 97 6.4 14.5 0.00 0.00 0.00 47 1012.4
20260830153052 31 92 4.8 16.1 0.00 0.00 0.00 48 1012.4
20260830152529 31 101 4.8 19.3 0.00 0.00 0.00 48 1012.4
20260830152024 31 134 8.0 19.3 0.00 0.00 0.00 49 1012.5
20260830151550 30 128 4.8 17.7 0.00 0.00 0.00 49 1012.5
20260830151028 30 105 6.4 17.7 0.00 0.00 0.00 50 1012.6
20260830150524 30 88 6.4 16.1 0.00 0.00 0.00 50 1012.5
20260830150050 30 126 4.8 17.7 0.00 0.00 0.00 51 1012.6
20260830145528 30 134 6.4 17.7 0.00 0.00 0.00 51 1012.7
20260830145024 30 121 6.4 19.3 0.00 0.00 0.00 51 1012.8
20260830144603 30 162 6.4 19.3 0.00 0.00 0.00 51 1012.8
20260830144102 30 191 8.0 19.3 0.00 0.00 0.00 51 1012.7
20260830143526 30 135 4.8 19.3 0.00 0.00 0.00 51 1012.8
20260830143053 30 165 6.4 19.3 0.00 0.00 0.00 51 1012.7
20260830142524 30 140 6.4 17.7 0.00 0.00 0.00 51 1012.7
20260830142025 30 155 6.4 16.1 0.00 0.00 0.00 51 1012.7
20260830141548 30 157 4.8 16.1 0.00 0.00 0.00 51 1012.6
20260830141028 29 153 4.8 17.7 0.00 0.00 0.00 52 1012.4
20260830140524 29 155 4.8 17.7 0.00 0.00 0.00 52 1012.4
20260830140056 29 141 6.4 17.7 0.00 0.00 0.00 53 1012.3
20260830135526 28 154 3.2 14.5 0.00 0.00 0.00 53 1012.2
20260830135027 28 119 3.2 11.3 0.00 0.00 0.00 54 1012.3
20260830134553 28 137 4.8 12.9 0.00 0.00 0.00 54 1012.2
20260830134025 28 151 4.8 17.7 0.00 0.00 0.00 54 1012.0
20260830133531 28 168 4.8 17.7 0.00 0.00 0.00 54 1011.8
20260830133126 28 141 6.4 17.7 0.00 0.00 0.00 53 1011.8
20260830132527 28 203 4.8 16.1 0.00 0.00 0.00 54 1011.7
20260830132027 28 173 6.4 12.9 0.00 0.00 0.00 54 1011.5
20260830131608 28 144 1.6 9.7 0.00 0.00 0.00 54 1011.5
20260830131024 28 173 1.6 11.3 0.00 0.00 0.00 55 1011.4
20260830130528 28 186 1.6 11.3 0.00 0.00 0.00 55 1011.3
20260830130048 28 161 3.2 14.5 0.00 0.00 0.00 55 1011.2
20260830125523 28 113 4.8 14.5 0.00 0.00 0.00 55 1011.1
20260830125025 28 133 4.8 19.3 0.00 0.00 0.00 55 1011.0
20260830124607 28 129 4.8 19.3 0.00 0.00 0.00 55 1010.9
20260830124031 28 140 6.4 19.3 0.00 0.00 0.00 55 1010.7
20260830123523 28 107 8.0 22.5 0.00 0.00 0.00 54 1010.8
20260830123053 28 142 8.0 22.5 0.00 0.00 0.00 54 1010.7
20260830122525 28 102 11.3 25.7 0.00 0.00 0.00 53 1010.7
20260830122023 28 175 11.3 25.7 0.00 0.00 0.00 52 1010.7
20260830121546 28 136 9.7 24.1 0.00 0.00 0.00 51 1010.6
20260830121027 28 177 11.3 24.1 0.00 0.00 0.00 50 1010.6
20260830120525 28 166 6.4 17.7 0.00 0.00 0.00 51 1010.5
20260830120053 28 171 8.0 16.1 0.00 0.00 0.00 51 1010.5
20260830115524 28 171 4.8 14.5 0.00 0.00 0.00 51 1010.5
20260830115024 28 113 3.2 14.5 0.00 0.00 0.00 51 1010.6
20260830114550 28 150 4.8 14.5 0.00 0.00 0.00 51 1010.6
20260830114024 28 161 6.4 17.7 0.00 0.00 0.00 51 1010.6
20260830113528 28 146 6.4 17.7 0.00 0.00 0.00 51 1010.5
20260830113052 28 162 6.4 17.7 0.00 0.00 0.00 50 1010.6
20260830112524 28 131 6.4 17.7 0.00 0.00 0.00 50 1010.6
20260830112026 29 149 8.0 19.3 0.00 0.00 0.00 50 1010.5
20260830111550 29 186 9.7 19.3 0.00 0.00 0.00 50 1010.5
20260830111025 28 169 6.4 16.1 0.00 0.00 0.00 50 1010.5
20260830110524 28 144 6.4 14.5 0.00 0.00 0.00 51 1010.4
20260830110052 28 160 3.2 12.9 0.00 0.00 0.00 52 1010.4
20260830105523 28 166 3.2 12.9 0.00 0.00 0.00 52 1010.5
20260830105023 28 150 3.2 12.9 0.00 0.00 0.00 53 1010.5
20260830104553 28 156 4.8 11.3 0.00 0.00 0.00 53 1010.5
20260830104028 28 190 3.2 9.7 0.00 0.00 0.00 54 1010.6
20260830103528 28 159 1.6 6.4 0.00 0.00 0.00 54 1010.6
20260830103051 28 180 1.6 3.2 0.00 0.00 0.00 54 1010.6
20260830102523 28 0 1.6 4.8 0.00 0.00 0.00 54 1010.5
20260830102023 28 182 0.0 4.8 0.00 0.00 0.00 54 1010.5
20260830101551 28 182 1.6 11.3 0.00 0.00 0.00 54 1010.6
20260830101026 28 0 0.0 11.3 0.00 0.00 0.00 54 1010.4
20260830100526 28 192 3.2 12.9 0.00 0.00 0.00 54 1010.3
20260830100051 28 215 4.8 12.9 0.00 0.00 0.00 54 1010.3
20260830095524 28 202 4.8 14.5 0.00 0.00 0.00 53 1010.2
20260830095025 28 224 4.8 14.5 0.00 0.00 0.00 53 1010.0
20260830094556 28 211 4.8 11.3 0.00 0.00 0.00 53 1010.0
20260830094028 29 221 3.2 11.3 0.00 0.00 0.00 53 1009.9
20260830093529 29 190 1.6 4.8 0.00 0.00 0.00 52 1010.0
20260830093047 29 190 0.0 3.2 0.00 0.00 0.00 52 1009.8
20260830092524 29 190 0.0 4.8 0.00 0.00 0.00 52 1009.7
20260830092025 29 190 1.6 4.8 0.00 0.00 0.00 52 1009.7
20260830091555 29 190 1.6 4.8 0.00 0.00 0.00 52 1009.6
20260830091025 29 0 0.0 3.2 0.00 0.00 0.00 51 1009.6
20260830090529 29 0 0.0 3.2 0.00 0.00 0.00 51 1009.6
20260830090051 29 190 0.0 3.2 0.00 0.00 0.00 51 1009.5
20260830085523 29 0 0.0 4.8 0.00 0.00 0.00 51 1009.5
20260830085024 29 190 1.6 4.8 0.00 0.00 0.00 50 1009.5
20260830084554 29 0 0.0 4.8 0.00 0.00 0.00 50 1009.4
20260830084024 29 190 1.6 9.7 0.00 0.00 0.00 50 1009.4
20260830083527 30 190 1.6 9.7 0.00 0.00 0.00 50 1009.4
20260830083102 30 0 3.2 9.7 0.00 0.00 0.00 49 1009.3
20260830082527 30 182 1.6 9.7 0.00 0.00 0.00 49 1009.2
20260830082026 30 195 3.2 12.9 0.00 0.00 0.00 49 1009.1
20260830081549 30 178 4.8 12.9 0.00 0.00 0.00 48 1009.1
20260830081024 30 222 1.6 9.7 0.00 0.00 0.00 48 1009.1
20260830080524 30 211 4.8 12.9 0.00 0.00 0.00 46 1009.1
20260830080049 31 189 4.8 12.9 0.00 0.00 0.00 45 1009.0
20260830075524 31 160 4.8 11.3 0.00 0.00 0.00 44 1009.0
20260830075027 31 194 4.8 11.3 0.00 0.00 0.00 44 1009.0
20260830074549 31 176 3.2 8.0 0.00 0.00 0.00 44 1009.0
20260830074025 31 158 1.6 6.4 0.00 0.00 0.00 44 1009.1
20260830073525 31 0 0.0 9.7 0.00 0.00 0.00 44 1009.2
20260830073052 31 0 3.2 16.1 0.00 0.00 0.00 44 1009.3
20260830072528 30 82 4.8 16.1 0.00 0.00 0.00 46 1009.2
20260830072023 30 96 3.2 12.9 0.00 0.00 0.00 47 1009.1
20260830071549 30 103 3.2 17.7 0.00 0.00 0.00 48 1009.1
20260830071024 30 78 4.8 22.5 0.00 0.00 0.00 49 1009.0
20260830070523 30 118 8.0 27.4 0.00 0.00 0.00 49 1009.0
20260830065527 30 105 11.3 27.4 0.00 0.00 0.00 50 1009.0
20260830065027 29 87 11.3 24.1 0.00 0.00 0.00 52 1009.1
20260830064555 29 169 9.7 24.1 0.00 0.00 0.00 53 1009.2
20260830064024 29 111 11.3 24.1 0.00 0.00 0.00 53 1009.3
20260830063525 29 99 11.3 20.9 0.00 0.00 0.00 53 1009.4
20260830063056 29 152 8.0 22.5 0.00 0.00 0.00 54 1009.5
20260830062527 29 126 8.0 24.1 0.00 0.00 0.00 54 1009.6
20260830062024 29 105 9.7 24.1 0.00 0.00 0.00 54 1009.6
20260830061602 29 106 9.7 24.1 0.00 0.00 0.00 53 1009.7
20260830061025 28 82 4.8 20.9 0.00 0.00 0.00 53 1009.8
20260830060528 28 121 6.4 29.0 0.00 0.00 0.00 54 1009.9
20260830060049 28 81 11.3 29.0 0.00 0.00 0.00 56 1010.0
20260830055524 28 158 11.3 32.2 0.00 0.00 0.00 56 1010.2
20260830055023 29 101 11.3 32.2 0.00 0.00 0.00 55 1010.1
20260830054550 29 74 14.5 32.2 0.00 0.00 0.00 54 1010.1
20260830054023 30 126 14.5 37.0 0.00 0.00 0.00 54 1010.1
20260830053524 30 159 16.1 37.0 0.00 0.00 0.00 53 1010.1
20260830053051 30 155 14.5 30.6 0.00 0.00 0.00 51 1010.1
20260830052530 31 128 12.9 32.2 0.00 0.00 0.00 49 1010.4
20260830052024 31 155 16.1 32.2 0.00 0.00 0.00 46 1010.5
20260830051554 31 146 11.3 30.6 0.00 0.00 0.00 46 1010.5
20260830051024 31 122 11.3 33.8 0.00 0.00 0.00 46 1010.5
20260830050525 31 144 14.5 33.8 0.00 0.00 0.00 46 1010.6
20260830050058 31 97 14.5 32.2 0.00 0.00 0.00 46 1010.4
20260830045525 32 126 12.9 29.0 0.00 0.00 0.00 45 1010.5
20260830045028 32 141 14.5 29.0 0.00 0.00 0.00 44 1010.3
20260830044600 33 136 9.7 40.2 0.00 0.00 0.00 43 1010.6
20260830044024 33 174 16.1 40.2 0.00 0.00 0.00 40 1010.4
20260830043524 34 169 12.9 33.8 0.00 0.00 0.00 37 1010.2
20260830043050 35 146 14.5 33.8 0.00 0.00 0.00 37 1010.0
20260830042527 35 136 12.9 29.0 0.00 0.00 0.00 35 1009.7
20260830042024 35 155 8.0 33.8 0.00 0.00 0.00 35 1009.5
20260830041554 35 189 11.3 33.8 0.00 0.00 0.00 33 1009.0
20260830041029 36 128 11.3 30.6 0.00 0.00 0.00 32 1009.0
20260830040524 36 192 12.9 38.6 0.00 0.00 0.00 31 1008.9
20260830040105 36 204 14.5 38.6 0.00 0.00 0.00 30 1008.9
20260830035524 37 210 16.1 35.4 0.00 0.00 0.00 29 1008.6
20260830035024 37 215 12.9 27.4 0.00 0.00 0.00 29 1008.5
20260830034604 37 238 11.3 24.1 0.00 0.00 0.00 28 1008.1
20260830034027 38 231 6.4 16.1 0.00 0.00 0.00 28 1008.0
20260830033523 38 236 4.8 12.9 0.00 0.00 0.00 28 1007.8
20260830033054 38 244 3.2 12.9 0.00 0.00 0.00 27 1007.6
20260830032525 38 251 1.6 12.9 0.00 0.00 0.00 27 1007.4
20260830032027 38 245 3.2 12.9 0.00 0.00 0.00 27 1007.2
20260830031605 38 261 1.6 11.3 0.00 0.00 0.00 26 1007.1
20260830031028 38 287 3.2 12.9 0.00 0.00 0.00 26 1006.9
20260830030526 39 262 3.2 12.9 0.00 0.00 0.00 26 1006.8
20260830030056 39 249 3.2 12.9 0.00 0.00 0.00 26 1006.6
20260830025527 39 259 3.2 12.9 0.00 0.00 0.00 26 1006.6
20260830025027 39 263 3.2 12.9 0.00 0.00 0.00 26 1006.6
20260830024551 39 274 3.2 12.9 0.00 0.00 0.00 26 1006.6
20260830024026 39 296 3.2 9.7 0.00 0.00 0.00 25 1006.5
20260830023527 40 264 3.2 12.9 0.00 0.00 0.00 25 1006.4
20260830023049 40 284 3.2 12.9 0.00 0.00 0.00 25 1006.4
20260830022524 40 248 3.2 14.5 0.00 0.00 0.00 25 1006.3
20260830022029 40 294 4.8 14.5 0.00 0.00 0.00 25 1006.2
20260830021554 40 246 3.2 14.5 0.00 0.00 0.00 25 1006.0
20260830021025 40 281 3.2 14.5 0.00 0.00 0.00 25 1006.0
20260830020523 40 315 4.8 14.5 0.00 0.00 0.00 25 1005.9
20260830020050 40 260 6.4 17.7 0.00 0.00 0.00 24 1005.9
20260830015524 40 281 4.8 17.7 0.00 0.00 0.00 24 1005.8
20260830015029 40 308 4.8 16.1 0.00 0.00 0.00 24 1005.8